Date,TemperatureHighF,TemperatureAvgF,TemperatureLowF,DewpointHighF,DewpointAvgF,DewpointLowF,HumidityHigh,HumidityAvg,HumidityLow,PressureMaxIn,PressureMinIn,WindSpeedMaxMPH,WindSpeedAvgMPH,GustSpeedMaxMPH,PrecipitationSumIn
2013-1-1,61,49,38,33,28,21,73,47,24,30.61,30.50,5,0,0,0.00
2013-1-2,67,51,39,29,22,18,52,34,15,30.55,30.37,4,0,0,0.00
2013-1-3,70,53,40,28,21,15,55,31,13,30.55,30.40,5,0,0,0.00
2013-1-4,64,49,34,27,20,14,56,34,17,30.64,30.52,5,0,0,0.00
2013-1-5,65,48,34,26,21,18,60,36,18,30.67,30.51,2,0,0,0.00
2013-1-6,65,51,38,38,28,21,62,44,27,30.50,30.29,7,1,0,0.00
2013-1-7,69,59,48,39,28,19,65,35,18,30.37,30.27,11,2,0,0.00
2013-1-8,84,65,50,40,31,21,46,30,19,30.40,30.28,6,1,0,0.00
2013-1-9,74,59,46,40,37,33,67,47,27,30.47,30.23,4,0,0,0.00
2013-1-10,63,54,47,42,33,18,73,46,29,30.32,30.11,16,2,0,0.00
2013-1-11,59,48,38,27,21,17,55,36,20,30.45,30.32,7,0,0,0.00
2013-1-12,58,47,37,29,23,15,68,42,19,30.49,30.35,7,0,0,0.00
2013-1-13,55,44,33,25,18,11,59,38,21,30.52,30.37,8,0,0,0.00
2013-1-14,53,44,37,13,6,2,37,21,13,30.72,30.53,12,2,0,0.00
2013-1-15,57,44,33,23,17,11,54,36,23,30.83,30.70,9,2,0,0.00
2013-1-16,66,49,33,30,26,20,64,43,24,30.76,30.57,4,0,0,0.00
2013-1-17,76,58,44,33,26,22,51,31,15,30.61,30.45,6,0,0,0.00
2013-1-18,78,59,44,31,26,21,49,30,16,30.54,30.40,2,0,0,0.00
2013-1-19,81,60,47,32,25,21,44,28,13,30.56,30.42,3,0,0,0.00
2013-1-20,82,61,43,33,23,18,45,25,11,30.49,30.33,1,0,0,0.00
2013-1-21,83,63,46,33,23,17,40,23,10,30.45,30.32,7,0,0,0.00
2013-1-22,78,62,45,33,25,16,45,27,13,30.46,30.35,4,0,0,0.00
2013-1-23,76,62,51,41,33,24,49,35,20,30.45,30.33,1,0,0,0.00
2013-1-24,72,64,59,50,42,33,71,46,31,30.50,30.36,4,0,0,0.00
2013-1-25,62,59,57,57,55,49,94,85,70,30.48,30.28,6,0,0,0.39
2013-1-26,68,61,57,59,57,55,96,86,71,30.28,30.16,8,1,0,0.13
2013-1-27,67,58,48,58,49,32,95,73,41,30.27,30.17,8,1,0,0.00
2013-1-28,63,53,44,38,32,27,70,46,26,30.44,30.26,9,0,0,0.00
2013-1-29,68,52,39,37,32,27,76,50,22,30.55,30.38,1,0,0,0.00
2013-1-30,69,54,41,40,38,35,87,58,29,30.68,30.53,7,1,0,0.00
2013-1-31,76,58,44,43,40,37,77,54,31,30.57,30.41,6,0,0,0.00